DECAYED

STARLINK-3284, 50178 (Decayed)

Orbit data source: Space-Track

STARLINK-3284, 50178 was a payload satellite owned by SpaceX/Seattle (US) in LEO that was launched on Sat, 18 Dec 2021 UTC via an FALCON 9 launch vehicle from the Air Force Western Test Range (AFWTR). Payload-class satellites include a variety of spacecraft equipped with specific instruments for various scientific and technological missions. These include communications satellites like Starlink; space stations such as the ISS; scientific satellites like the Hubble; Earth observation satellites from companies like Planet Labs, Umbra, and HawkEye 360; GPS; miniature CubeSats for education and research; and military/defense satellites.

Not visible in the next 10 days
Identifier
50178, 2021-125Y
Orbit
Decayed
Country
Flag of USUS
Related business
Manufacturer
SpaceX/Seattle
Mission
Decayed Commercial Communications
Bus & Motor
STARLINK, Unknown motor
Mass
290 kg wet, ~270 kg dry
Launch date (UTC)
2021-12-18 (5 years ago)
Launch vehicle
FALCON 9
Launch site
Air Force Western Test Range (AFWTR)
Object type
Payload
Rocket body
Debris
Shape & HBR
Box + 1 Pan, 10.1 m
Radar Cross Section
13.562 m², Large (>1 m²)

Expand to show TLE details & history
Last TLE update: 4 months ago

TLE from 4 months ago
0 STARLINK-3284
1 50178U 21125Y   26036.40548787  .09634030  12470-4  27283-3 0  9990
2 50178  53.1927 340.2782 0003591 243.3336 216.9279 16.45347056232518
Epoch: 2026-02-05T09:43Z
TLE epoch observation values (Epoch: 2026-02-05T09:43:54.151Z)
Latitude
52.14837°
Longitude
165.53742°
Altitude
159.751 km
Speed
7.816 km/s
True Right ascension
05h 48m 17s
True Declination
51° 57' 59"
Sunlit
Object was in full shadow at epoch
Visualization orbit readout
Latitude
Unknown
Longitude
Unknown
Altitude
Unknown
Speed
Unknown
Apparent Right ascension
Unknown
Apparent Declination
Unknown
Sunlit
N/A
Visualization observer readout
Local Sidereal Time
14:02:19
Azimuth
Unknown
Elevation
Unknown
Doppler factor
Unknown
Orbital elements
Apogee altitude
154.225 km
Perigee altitude
149.535 km
Semi-major axis
6,530.017 km
Eccentricity
0.00036
Inclination
53.1927°
RAAN
340.2782°
Arg. of periapsis
243.3336°
True anomaly
216.90319°
Mean anomaly
216.9279°
Eccentric anomaly
216.91554°
Mean motion
4.11312 °/min
Orbital period
87.52 mins
BSTAR
0.00027283
Loading maneuver chart data...
Computing Atmospheric mass density...
Loading historical data...
Loading historical data...
Loading historical data...
Loading historical data...
Loading historical data...
Loading historical data...
Loading historical data...

Documentation

Showing up to 5 results
|